This is the latest recevied weather packets stored in our database for station/object SR6WVX. If no packets are shown the sender has not sent any weather packets the latest 10 day(s).
| Time | Temp. | Humidity | Pressure | Rain* | Wind** | Luminosity | Snow |
|---|---|---|---|---|---|---|---|
| 1777580485 | 8.89° C | 61% | 1023.8 hPa | 0 mm | - | - | - |
| 1777580185 | 8.89° C | 60% | 1023.8 hPa | 0 mm | - | - | - |
| 1777579884 | 8.89° C | 60% | 1023.8 hPa | 0 mm | - | - | - |
| 1777579584 | 8.33° C | 60% | 1023.9 hPa | 0 mm | - | - | - |
| 1777579284 | 8.33° C | 60% | 1023.9 hPa | 0 mm | - | - | - |
| 1777578983 | 8.33° C | 60% | 1023.9 hPa | 0 mm | - | - | - |
| 1777578683 | 8.33° C | 59% | 1023.8 hPa | 0 mm | - | - | - |
| 1777578383 | 8.33° C | 60% | 1023.8 hPa | 0 mm | - | - | - |
| 1777578083 | 8.33° C | 59% | 1023.7 hPa | 0 mm | - | - | - |
| 1777577783 | 7.78° C | 59% | 1023.7 hPa | 0 mm | - | - | - |
| 1777577482 | 7.78° C | 59% | 1023.8 hPa | 0 mm | - | - | - |
| 1777577182 | 7.78° C | 58% | 1023.7 hPa | 0 mm | - | - | - |
| 1777576882 | 7.78° C | 57% | 1023.7 hPa | 0 mm | - | - | - |
| 1777576581 | 8.33° C | 56% | 1023.7 hPa | 0 mm | - | - | - |
| 1777576281 | 8.33° C | 56% | 1023.7 hPa | 0 mm | - | - | - |
| 1777575981 | 8.89° C | 56% | 1023.6 hPa | 0 mm | - | - | - |
| 1777575681 | 8.33° C | 57% | 1023.5 hPa | 0 mm | - | - | - |
| 1777575380 | 8.33° C | 56% | 1023.5 hPa | 0 mm | - | - | - |
| 1777575080 | 8.33° C | 55% | 1023.6 hPa | 0 mm | - | - | - |
| 1777574780 | 8.33° C | 55% | 1023.5 hPa | 0 mm | - | - | - |
| 1777574479 | 8.33° C | 53% | 1023.4 hPa | 0 mm | - | - | - |
| 1777574179 | 8.33° C | 53% | 1023.6 hPa | 0 mm | - | - | - |
| 1777573879 | 8.89° C | 51% | 1023.5 hPa | 0 mm | - | - | - |
| 1777573579 | 8.89° C | 49% | 1023.4 hPa | 0 mm | - | - | - |
| 1777573279 | 9.44° C | 50% | 1023.3 hPa | 0 mm | - | - | - |
* Rain latest hour (hover to see other rain measurements)
** Current wind speed in m/s (hover to see current wind gust speed)